This is the latest recevied weather packets stored in our database for station/object NW1E. If no packets are shown the sender has not sent any weather packets the latest 10 day(s).
| Time | Temp. | Humidity | Pressure | Rain* | Wind** | Luminosity | Snow |
|---|---|---|---|---|---|---|---|
| 1777612760 | 23.33° C | 90% | 1012.3 hPa | 0 mm | - | 0 W/m² | - |
| 1777610165 | 23.33° C | 90% | 1012.4 hPa | 0 mm | - | 0 W/m² | - |
| 1777607458 | 23.33° C | 89% | 1012.4 hPa | 0 mm | - | 0 W/m² | - |
| 1777606257 | 23.33° C | 89% | 1012.3 hPa | 0 mm | - | 0 W/m² | - |
| 1777603257 | 24.44° C | 86% | 1012.4 hPa | 0 mm | - | 0 W/m² | - |
| 1777602657 | 24.44° C | 85% | 1012.5 hPa | 0 mm | - | 0 W/m² | - |
| 1777601755 | 24.44° C | 85% | 1012.6 hPa | 0 mm | - | 0 W/m² | - |
| 1777600248 | 25° C | 84% | 1012.5 hPa | 0 mm | - | 0 W/m² | - |
| 1777599946 | 25° C | 84% | 1012.4 hPa | 0 mm | - | 0 W/m² | - |
| 1777599040 | 25° C | 83% | 1012.3 hPa | 0 mm | - | 0 W/m² | - |
| 1777598739 | 25.56° C | 83% | 1012.2 hPa | 0 mm | - | 0 W/m² | - |
| 1777598193 | 25.56° C | 82% | 1012.1 hPa | 0 mm | - | 0 W/m² | - |
| 1777597537 | 25.56° C | 82% | 1012 hPa | 0 mm | - | 0 W/m² | - |
| 1777595652 | 25.56° C | 80% | 1011.8 hPa | 0 mm | - | 0 W/m² | - |
| 1777594511 | 25.56° C | 79% | 1011.7 hPa | 0 mm | - | 0 W/m² | - |
| 1777593306 | 26.11° C | 78% | 1011.4 hPa | 0 mm | - | 5 W/m² | - |
| 1777591556 | 26.67° C | 76% | 1011.1 hPa | 0 mm | - | 69 W/m² | - |
| 1777587890 | 27.78° C | 73% | 1011.3 hPa | 0 mm | - | 95 W/m² | - |
| 1777586089 | 28.33° C | 71% | 1011.2 hPa | 0 mm | - | 364 W/m² | - |
| 1777583871 | 28.89° C | 70% | 1011.2 hPa | 0 mm | - | 448 W/m² | - |
| 1777583026 | 29.44° C | 68% | 1011.2 hPa | 0 mm | - | 577 W/m² | - |
| 1777581580 | 29.44° C | 66% | 1011.2 hPa | 0 mm | - | 566 W/m² | - |
| 1777580672 | 29.44° C | 65% | 1011.2 hPa | 0 mm | - | 630 W/m² | - |
| 1777580079 | 29.44° C | 65% | 1011.4 hPa | 0 mm | - | 617 W/m² | - |
| 1777579475 | 30° C | 63% | 1011.4 hPa | 0 mm | - | 624 W/m² | - |
* Rain latest hour (hover to see other rain measurements)
** Current wind speed in m/s (hover to see current wind gust speed)